METEOSAT-11 (MSG-4) (40732 NORAD) Tracking and Keplerian Element Data

This shows tracking and keplerian element data for the satellite.

Feedback or suggestion? Click here.




ElementValue
Catalog40732
NameMETEOSAT-11 (MSG-4)
Epoch Orbit2265
Epoch Day261.86827771
Epoch Year2021
RAAN117.9759
Inclination0.3022
Eccentricity7.3E-05
Argument of Perigee83.9615
Mean Anonmoly109.443
Mean Motion1.00282837
Decay Rate-1.9E-07
L11 40732U 15034A 21261.86827771 -.00000019 00000-0 00000-0 0 9998
L22 40732 0.3022 117.9759 0000730 83.9615 109.4430 1.00282837 22653

Live tracking and technical data element details for METEOSAT-11 (MSG-4) (NORAD 40732). METEOSAT-11 (MSG-4) can be tracked NOW for your location showing map with azimuth and elevation plus other details from your city location.

Track the satellite on the map from your city or location and see movement details for azimuth, elevation, latitude, longitude, range, height, and movement on the map or in text.







IsCatalogInMostPopularTable: catalog: 40732, numindb: 554
Update: records affected: 1



GetName: 40732 METEOSAT-11 (MSG-4)

Hit Count: updated at: Sat, 25 Sep 2021 23:48:53 GMT